Flag for Canada Weather past 2 weeks in Creston, British Columbia, Canada

Now
75 °F

Mild.


Feels Like: 77 °F
Forecast: 51 / 88 °F
Wind: 3 mph from Southeast

Location: Creston

Current Time: Aug 27, 2015 at 12:48:58 PM

Latest Report: Aug 27, 2015 at 12:00 PM


Visibility: N/A

Pressure: 30.00 "Hg (27.95 "Hg at 617m altitude)

Humidity: 36%

Dew point: 47 °F

Location of CrestonLocation

Historic Weather in Creston — Graph

°F

Creston temperature yesterday

Maximum temperature yesterday: 77 °F (at 4:00 PM)
Minimum temperature yesterday: 57 °F (at 7:00 AM)
Average temperature yesterday: 67 °F

Past Weeks' High & Low Weather Summary

 TemperatureHumidityPressure
High91 °F (Aug 19, 5:00 PM)94% (Aug 16, 3:00 AM)30.28 "Hg (Aug 16, 3:00 AM)
Low48 °F (Aug 22, 6:00 AM)15% (Aug 14, 8:00 PM)29.55 "Hg (Aug 21, 3:00 AM)
Average68 °F45%29.96 "Hg
* Reported Aug 12 11:00 AM — Aug 27 11:00 AM, Creston, Weather by CustomWeather, © 2015

Note: Actual official high and low records may vary slightly from our data, if they occured in-between our weather recording intervals... More about our weather records

Advertising

Creston weather history for previous 24 hours

 ConditionsComfort  
Time TempWeatherWind HumidityBarometerVisibility
11:00 AM
Thu, Aug 27
65 °FMild.3 mph59%30.05 "HgN/A
10:00 AM67 °FMild.2 mph46%30.05 "HgN/A
9:00 AM62 °FCool.1 mph63%30.06 "HgN/A
8:00 AM58 °FCool.1 mph64%30.06 "HgN/A
7:00 AM59 °FRefreshingly cool.3 mph59%30.04 "HgN/A
6:00 AM58 °FCool.3 mph63%30.03 "HgN/A
5:00 AM58 °FCool.2 mph68%30.01 "HgN/A
4:00 AM59 °FRefreshingly cool.2 mph55%29.99 "HgN/A
3:00 AM62 °FRefreshingly cool.2 mph54%29.99 "HgN/A
2:00 AM64 °FMild.1 mph53%29.97 "HgN/A
1:00 AM63 °FMild.1 mph55%29.97 "HgN/A
12:00 AM67 °FMild.1 mph46%29.95 "HgN/A
11:00 PM
Wed, Aug 26
65 °FMild.2 mph57%29.95 "HgN/A
10:00 PM66 °FMild.2 mph52%29.95 "HgN/A
9:00 PM68 °FMild.1 mph50%29.94 "HgN/A
8:00 PM70 °FMild.6 mph44%29.93 "HgN/A
7:00 PM72 °FMild.2 mph45%29.92 "HgN/A
6:00 PM73 °FMild.3 mph41%29.93 "HgN/A
5:00 PM77 °FPleasantly warm.3 mph33%29.93 "HgN/A
4:00 PM77 °FPleasantly warm.5 mph38%29.96 "HgN/A
3:00 PM76 °FMild.7 mph35%29.97 "HgN/A
2:00 PM76 °FMild.6 mph36%30.00 "HgN/A
1:00 PM74 °FMild.6 mph39%30.03 "HgN/A
12:00 PM72 °FMild.3 mph44%30.06 "HgN/A
Weather by CustomWeather, © 2015

See weather overviewHow to use our weather pages